Regional Weather Roundup
Issued by NWS

Home | Current Version | Previous Version | Text Only | Print | Product List | Glossary On
Versions: 1 2 3 4 5 6 7 8 9 10 11 12 13 14 15 16 17 18 19 20 21 22 23 24 25 26 27 28 29 30 31 32 33 34 35 36 37 38 39 40 41 42 43 44 45 46 47 48 49 50
251
ASUS44 KFWD 260910
RWRTX
NORTH TEXAS HOURLY WEATHER ROUNDUP
NATIONAL WEATHER SERVICE FORT WORTH TX
400 AM CDT FRI MAY 26 2017

NOTE: "FAIR" INDICATES FEW OR NO CLOUDS BELOW 12,000 FEET WITH NO
SIGNIFICANT WEATHER AND/OR OBSTRUCTIONS TO VISIBILITY.

TXZ118-119-261000-
DALLAS/FORT WORTH METROPLEX

CITY           SKY/WX    TMP DP  RH WIND       PRES   REMARKS
DFW AIRPORT    MOCLDY    75  70  84 S16G24    29.68R
DALLAS LOVE    MOCLDY    75  68  78 S13       29.70R
FTW MEACHAM    MOCLDY    75  70  84 S21       29.68R
DAL-EXECUTIVE  CLOUDY    74  69  85 S8        29.70R
FTW-ALLIANCE   MOCLDY    75  69  81 S14G23    29.67R
FTW-NAS-JRB    PTCLDY    75  68  78 S14       29.69R
FTW-SPINKS     MOCLDY    74  68  83 S10G21    29.72R
ARLINGTON      CLOUDY    75  69  81 S15G22    29.70R
GRAND PRAIRIE  MOCLDY    74  67  79 S15G22    29.71R
ADDISON        MOCLDY    74  67  80 S14       29.71R
MESQUITE       CLOUDY    73  67  82 S15       29.72R
LANCASTER      CLOUDY    73  67  81 S12G21    29.73R
$$

TXZ091>094-102>105-117-120-121-131>134-261000-
NORTH CENTRAL TEXAS

CITY           SKY/WX    TMP DP  RH WIND       PRES   REMARKS
SHRMAN/DENISON PTCLDY    73  66  79 S21G26    29.66R
GAINESVILLE    PTCLDY    73  66  79 S14       29.67R
BOWIE          PTCLDY    75  67  74 S9G16     29.65R
BRIDGEPORT     PTCLDY    77  67  69 S15G24    29.66R
DECATUR        CLOUDY    75  67  76 S14       29.67R
DENTON         PTCLDY    74  68  81 S13       29.67R
MCKINNEY       PTCLDY    73  68  84 S17       29.69R
BONHAM         CLEAR     72  63  73 S17G28    29.67S
GREENVILLE     CLEAR     73  63  68 S15       29.72R
ROCKWALL       MOCLDY    73  66  80 SW17G26   29.72R
TERRELL        MOCLDY    71  63  75 S12       29.73R
WAXAHACHIE     CLOUDY    73  69  86 S20G25    29.72S
CLEBURNE       MOCLDY    73  72  94 S14G22    29.74R
GRANBURY       PTCLDY    76  68  76 SE7       29.72R
$$

TXZ083>090-098>101-113>116-127>130-139>142-154-155-261000-
WESTERN NORTH TEXAS

CITY           SKY/WX    TMP DP  RH WIND       PRES   REMARKS
WICHITA FALLS  CLEAR     79  61  53 SW16      29.60R
WF-KICKAPOO    CLEAR     81  63  52 SW8G16    29.63R
VERNON         CLEAR     78  53  41 SW14      29.61R
ABILENE        PTCLDY    79  63  57 S21G30    29.73R
ABILENE-DYESS  PTCLDY    78  65  63 S12       29.71R
GRAHAM         PTCLDY    76  64  64 S7        29.66R
BRECKENRIDGE   PTCLDY    79  62  57 S10G16    29.68R
CISCO          PTCLDY    75  64  69 S16G25    29.73R
EASTLAND       PTCLDY    76  65  70 S14       29.72R
RANGER         PTCLDY    73  67  81 S13       29.72R
MINERAL WELLS  CLOUDY    74  67  78 S10       29.67R
STEPHENVILLE   CLOUDY    73  67  82 S7        29.76R
COMANCHE       PTCLDY    73  69  87 S13G21    29.74R
BROWNWOOD      CLOUDY    72  68  88 SE9       29.76S
COLEMAN        MOCLDY    74  64  70 S9        29.76R
$$

TXZ143>147-156>162-174-175-261000-
CENTRAL TEXAS

CITY           SKY/WX    TMP DP  RH WIND       PRES   REMARKS
WACO           LGT RAIN  76  71  85 S17       29.75R
WACO-MCGREGOR  CLOUDY    76  71  85 S13G18    29.76R
HILLSBORO      CLOUDY    75  71  86 S16G23    29.75R
CORSICANA      CLOUDY    75  69  81 S16G23    29.76R
MEXIA          CLOUDY    73  68  84 S16G25    29.76S
HEARNE         CLOUDY    75  72  88 S9        29.79S
CAMERON        CLOUDY    77  71  81 S10G18    29.78R
TEMPLE         CLOUDY    75  72  90 S17       29.77R
KILLEEN        CLOUDY    75  72  88 S14G21    29.77R
KILLEEN-SKYLRK CLOUDY    75  72  90 S14       29.78R
FORT HOOD      CLOUDY    74  71  88 S13       29.75R
HAMILTON       CLEAR     73  72  95 SW18      29.76S
LAMPASAS       MOCLDY    76  73  90 S6        29.77R
$$

TXZ095>097-106>112-122>126-135>138-148>153-164>167-261000-
EAST TEXAS

CITY           SKY/WX    TMP DP  RH WIND       PRES   REMARKS
PARIS          CLEAR     66  57  72 S10       29.72R
SULPHUR SPRNGS CLEAR     72  60  65 S10G17    29.73S
MOUNT PLEASANT MOCLDY    69  59  70 S9        29.76R
GILMER         CLOUDY    68  61  77 S7        29.77R THUNDER
MINEOLA        CLEAR     72  63  73 S8        29.74R
TYLER          MOCLDY    70  63  78 S13       29.76R
LONGVIEW       CLOUDY    70  65  84 S10       29.78R
MARSHALL       MOCLDY    66  62  86 S7        29.81R
ATHENS         CLOUDY    70  61  73 S9        29.76R
PALESTINE      CLOUDY    71  65  82 S8        29.80R
JACKSONVILLE   CLOUDY    68  64  88 S10       29.81R
HENDERSON      MOCLDY    69  64  85 S9G17     29.80R
CENTER         CLOUDY    73  68  83 S9        29.82R
NACOGDOCHES    CLOUDY    68  63  83 S7        29.80R
LUFKIN         PTCLDY    67  65  93 S7        29.81R
$$

SUPPLEMENTAL OBSERVATIONS (NWS FORT WORTH AREA)

CITY           SKY/WX    TMP DP  RH WIND       PRES   REMARKS
CADDO GRASSLND   N/A    N/A N/A N/A S14G22      N/A
PAT MAYSE LAKE   N/A     70  63  78 SE10        N/A
GREENVILLE       N/A     72  61  68 S12G21      N/A
CEDAR HILL       N/A     75  68  78 S12G22      N/A
LBJ GRASSLAND    N/A     75  66  73 S10         N/A
POSSUM KINGDOM   N/A     79  64  61 SW13G23     N/A
GRANBURY         N/A     75  68  78 S8G16       N/A
MCGREGOR         N/A     75  70  83 SW8G17      N/A
TEMPLE           N/A     73  70  88 S12         N/A
$$

SUPPLEMENTAL OBSERVATIONS (NWS NORMAN AREA)

CITY           SKY/WX    TMP DP  RH WIND       PRES   REMARKS
GOODLETT         N/A     74  36  24 SW14      29.60S
ODELL            N/A     78  56  46 S17       29.60R
CROWELL          N/A     80  60  49 SW18      29.63R
KNOX CITY        N/A     80  59  48 SW15      29.67R
SEYMOUR          N/A     76  60  56 S13       29.65R
MILLERS CREEK    N/A     75  61  60 SW10        N/A
$$

SUPPLEMENTAL OBSERVATIONS (NWS SAN ANGELO AREA)

CITY           SKY/WX    TMP DP  RH WIND       PRES   REMARKS
HASKELL          N/A     76  60  57 SW10      29.69R
THROCKMORTON     N/A     82  64  55 S12       29.68R
STAMFORD         N/A     78  64  63 SW15      29.69S
CLYDE            N/A     74  64  69 S13       29.76R
HAMBY            N/A     79  63  57 S13G21      N/A
IVIE RESERVOIR   N/A     73  64  73 SE5         N/A
COLORADO BEND    N/A     73  70  88 SW6G14      N/A
$$

SUPPLEMENTAL OBSERVATIONS (NWS SHREVEPORT AREA)

CITY           SKY/WX    TMP DP  RH WIND       PRES   REMARKS
CLARKSVILLE      N/A     68  61  77 S7          N/A
TEXARKANA        N/A     68  63  83 SE3         N/A
LINDEN           N/A     66  61  82 SE2         N/A
GILMER           N/A     70  63  78 S3G12       N/A
HENDERSON        N/A     70  64  83 S12         N/A
LUFKIN           N/A     68  63  83 MISG        N/A
S SABINE NF      N/A     66  61  82 S2          N/A
$$

SUPPLEMENTAL OBSERVATIONS ARE A COLLECTION OF AUTOMATED INSTRUMENTS
THAT ARE MAINTAINED BY A VARIETY OF FEDERAL AND STATE AGENCIES.
CERTAIN ELEMENTS...SUCH AS HUMIDITY VALUES AND SUSTAINED WIND
SPEEDS...MAY BE APPROXIMATED.





USA.gov is the U.S. government's official web portal to all federal, state and local government web resources and services.